KQ6DI-1 Weather Reports


time (UTC)temp
F
wind
direction
speed
knots
gust
knots
rain 1hr
in
rain 24hr
in
rain mn
in
humidity
%
barometer
mb
20260506044601 47 0 0.0 0.0 31.88 0.00 0.14 100 1014.0
20260506043401 47 0 0.0 0.0 31.88 0.00 0.14 100 1014.0
20260506042201 47 0 0.0 0.0 31.88 0.00 0.14 100 1014.0
20260506041001 47 0 0.0 0.0 31.88 0.00 0.14 100 1013.8
20260506035801 47 0 0.0 0.0 31.88 0.00 0.14 100 1013.7
20260506034601 47 0 0.0 0.0 31.88 0.00 0.14 100 1013.6
20260506033401 47 0 0.0 0.0 31.88 0.00 0.14 100 1013.4
20260506032201 47 0 0.0 0.0 31.88 0.00 0.14 100 1013.1
20260506031001 47 0 0.0 0.0 31.88 0.00 0.14 100 1012.9
20260506025801 47 0 0.0 0.0 31.88 0.00 0.14 100 1012.6
20260506024601 47 0 0.0 0.0 31.88 0.00 0.14 100 1012.6
20260506023401 48 0 0.0 0.0 31.88 0.00 0.14 100 1012.5
20260506022201 48 0 0.0 0.0 31.88 0.00 0.14 100 1012.5
20260506021001 48 0 0.0 0.0 31.88 0.00 0.14 99 1012.5
20260506015801 48 0 0.0 0.0 31.88 0.00 0.14 99 1012.4
20260506014601 47 0 0.0 0.0 31.88 0.00 0.14 99 1012.5
20260506013401 48 0 0.0 0.0 31.88 0.00 0.14 99 1012.5
20260506012201 48 0 0.0 0.0 31.88 0.00 0.14 99 1012.5
20260506011001 48 0 0.0 0.0 31.88 0.00 0.14 99 1012.4
20260506005801 48 0 0.0 0.0 31.88 0.00 0.14 99 1012.4
20260506004601 48 0 0.0 0.0 31.88 0.00 0.14 98 1012.4
20260506003401 48 0 0.0 0.0 31.88 0.00 0.14 99 1012.3
20260506002201 48 0 0.0 0.0 31.88 0.00 0.14 97 1012.3
20260506001001 48 0 0.0 0.0 31.88 0.00 0.14 97 1012.1
20260505235801 49 0 0.0 0.0 31.88 0.00 0.14 97 1012.1
20260505234601 49 0 0.0 0.0 31.88 0.00 0.14 97 1011.9
20260505233401 49 0 0.0 0.0 31.88 0.00 0.14 97 1011.9
20260505232201 49 0 0.0 0.0 31.88 0.00 0.14 96 1011.8
20260505231001 49 0 0.0 0.0 31.88 0.00 0.14 96 1011.8
20260505225801 49 0 0.0 0.0 31.88 0.00 0.14 95 1011.8
20260505224601 49 0 0.0 0.0 31.88 0.00 0.14 95 1011.8
20260505223401 49 0 0.0 0.0 31.88 0.00 0.14 95 1011.8
20260505222201 50 0 0.0 0.0 31.88 0.00 0.14 94 1011.7
20260505221001 50 0 0.0 0.0 31.88 0.00 0.14 94 1011.8
20260505215801 50 0 0.0 0.0 31.88 0.00 0.14 92 1011.8
20260505214601 51 0 0.0 0.0 31.88 0.00 0.14 92 1011.9
20260505213401 52 0 0.0 0.0 31.88 0.00 0.14 90 1011.8
20260505212201 52 0 0.0 0.0 31.88 0.00 0.14 90 1011.9
20260505211001 52 0 0.0 0.0 31.88 0.00 0.14 91 1010.9
20260505205801 52 0 0.0 0.0 31.88 0.00 0.14 91 1011.8
20260505204601 51 0 0.0 0.0 31.88 0.00 0.14 92 1011.8
20260505203401 51 0 0.0 0.0 31.88 0.00 0.14 90 1011.7
20260505202201 51 0 0.0 0.0 31.88 0.00 0.14 91 1011.7
20260505201001 51 0 0.0 0.0 31.88 0.00 0.14 91 1011.9
20260505195801 51 0 0.0 0.0 31.88 0.00 0.14 92 1011.9
20260505194601 50 0 0.0 0.0 31.88 0.00 0.14 92 1012.0
20260505193401 50 0 0.0 0.0 31.88 0.00 0.14 92 1012.0
20260505192201 50 0 0.0 0.0 31.88 0.00 0.14 92 1011.7
20260505191001 51 0 0.0 0.0 31.88 0.00 0.14 91 1011.8
20260505185801 51 0 0.0 0.0 31.88 0.00 0.14 89 1011.8
20260505184601 51 0 0.0 0.0 31.88 0.00 0.14 90 1011.6
20260505183401 51 0 0.0 0.0 31.88 0.00 0.14 90 1011.4
20260505182201 51 0 0.0 0.0 31.88 0.00 0.14 91 1011.4
20260505181001 51 0 0.0 0.0 31.88 0.00 0.14 90 1011.2
20260505175801 50 0 0.0 0.0 31.88 0.00 0.14 91 1011.3
20260505174601 50 0 0.0 0.0 31.88 0.00 0.14 91 1011.3
20260505173401 50 0 0.0 0.0 31.88 0.00 0.14 92 1011.3
20260505172201 49 0 0.0 0.0 31.88 0.00 0.14 94 1011.0
20260505171001 49 0 0.0 0.0 31.88 0.00 0.14 94 1011.1
20260505165801 48 0 0.0 0.0 31.88 0.00 0.14 95 1011.0
20260505164601 47 0 0.0 0.0 31.88 0.00 0.14 96 1011.1
20260505162201 46 0 0.0 0.0 31.88 0.00 0.14 97 1011.1
20260505161001 45 0 0.0 0.0 31.88 0.00 0.14 98 1010.9
20260505124601 43 0 0.0 0.0 31.86 0.00 0.12 100 1010.2
20260505102201 44 0 0.0 0.0 31.84 0.00 0.10 100 1010.0
20260505093401 44 0 0.0 0.0 31.82 0.00 0.08 100 1010.3
20260505083401 44 0 0.0 0.0 31.79 0.00 0.05 100 1010.5
20260505082201 44 0 0.0 0.0 31.78 0.00 0.04 100 1010.6
20260505081001 44 0 0.0 0.0 31.78 0.00 0.04 100 1010.6
20260505075801 44 0 0.0 0.0 31.77 0.00 0.03 100 1010.7
20260505074601 44 0 0.0 0.0 31.76 0.00 0.02 100 1010.7
20260505073401 44 0 0.0 0.0 31.76 0.00 0.02 100 1010.7
20260505072201 44 0 0.0 0.0 31.76 0.00 0.02 100 1010.6
20260505071001 44 0 0.0 0.0 31.75 0.00 0.01 100 1010.6